Location: Elstree
(51.6403°N, 0.2969°W)
Time: 06:11:51
(UTC+00:00)

Terra - Pass Details

Date: 24 June 2021
Orbit: 701 x 703 km, 98.2° (Epoch: 04 August)

Event Time Altitude Azimuth Distance (km) Brightness Sun altitude
Exits shadow 23:34:04 - 232° (SW) 2,788 4.6 -14.7°
Reaches altitude 10° 23:37:20 10° 263° (W) 2,176 4.3 -14.7°
Maximum altitude 23:38:26 11° 276° (W) 2,129 4.5 -14.8°
Drops below altitude 10° 23:39:32 10° 290° (WNW) 2,180 4.7 -14.8°
Sets 23:43:54 0° 328° (NNW) 3,106 6.3 -14.8°
